Regional Weather Roundup
Issued by NWS

Home | Current Version | Previous Version | Graphics & Text | Print | Product List | Glossary On
Versions: 1 2 3 4 5 6 7 8 9 10 11 12 13 14 15 16 17 18 19 20 21 22 23 24 25 26 27 28 29 30 31 32 33 34 35 36 37 38 39 40 41 42 43 44 45 46 47 48 49 50
000
ASUS45 KPSR 272100
RWRAZ

PRELIMINARY ARIZONA REGIONAL HOURLY WEATHER ROUNDUP
NATIONAL WEATHER SERVICE PHOENIX AZ
200 PM MST TUE JAN 27 2015

NOTE: FAIR INDICATES FEW OR NO CLOUDS BELOW 12,000 FEET WITH NO
SIGNIFICANT WEATHER AND/OR OBSTRUCTIONS TO VISIBILITY.

AZZ001>003-036-272200-
NORTHWEST ARIZONA

CITY           SKY/WX    TMP DP  RH WIND       PRES   REMARKS
KINGMAN        MOSUNNY   61  47  59 SW8       30.22F
$$

AZZ004>008-015-016-018-272200-
NORTH CENTRAL ARIZONA

CITY           SKY/WX    TMP DP  RH WIND       PRES   REMARKS
GRAND CANYON   LGT RAIN  46  40  79 SW15      30.30F
PRESCOTT       SUNNY     59  33  37 S12       30.26F
FLAGSTAFF      NOT AVBL
PAYSON         CLOUDY    50  43  76 VRB6      30.31F
$$

AZZ009>014-017-272200-
NORTHEAST ARIZONA

CITY           SKY/WX    TMP DP  RH WIND       PRES   REMARKS
WINSLOW        NOT AVBL
SAINT JOHNS    PTSUNNY   61  38  42 VRB3      30.27F
WINDOW ROCK    PTSUNNY   56  32  40 SW9G21    30.31F
SHOW LOW       PTSUNNY   55  36  47 S10G17    30.32F
$$

AZZ023-272200-
GREATER PHOENIX AREA

CITY           SKY/WX    TMP DP  RH WIND       PRES   REMARKS
PHOENIX        MOSUNNY   71  47  42 E6        30.16F
GLENDALE       MOSUNNY   70  46  43 E5        30.18F
DEER VALLEY    SUNNY     69  46  43 VRB3      30.17F
SCOTTSDALE     SUNNY     70  47  43 CALM      30.18F
MESA-FALCON    PTSUNNY   70  45  40 NE12      30.16F
MESA-GATEWAY   PTSUNNY   66  52  59 NW3       30.19F
CHANDLER       PTSUNNY   68  48  49 CALM      30.18F
$$

AZZ027-028-272200-
SOUTHWEST MARICOPA COUNTY AND PINAL COUNTY

CITY           SKY/WX    TMP DP  RH WIND       PRES   REMARKS
CASA GRANDE    CLOUDY    63  52  67 CALM      30.18F
GILA BEND      PTCLDY    72  53  52 N6        30.15F
$$

AZZ503-504-507>509-272200-
SOUTHEAST ARIZONA

CITY           SKY/WX    TMP DP  RH WIND       PRES   REMARKS
TUCSON         SUNNY     73  46  38 VRB5      30.18F
DAVIS-MONTHAN  SUNNY     71  47  42 NW6       30.16F
RYAN FIELD       N/A     72  50  46 NW8       30.18F
NOGALES        MOSUNNY   69  46  43 CALM      30.20F
SIERRA VISTA   PTSUNNY   66  41  39 N5        30.23F
SAFFORD        SUNNY     69  33  26 SW5       30.20F
$$

AZZ020-021-025-026-031-272200-
SOUTHWEST ARIZONA

CITY           SKY/WX    TMP DP  RH WIND       PRES   REMARKS
YUMA           PTSUNNY   68  55  63 N7        30.17F
$$

CAZ031-033-041-043-047-048-061-272200-
SOUTHERN CALIFORNIA

CITY           SKY/WX    TMP DP  RH WIND       PRES   REMARKS
DOWNTOWN L.A.  SUNNY     72  47  40 NW3       30.14F
L.A. AIRPORT   MOSUNNY   67  57  70 W12       30.16S
SAN DIEGO      PTSUNNY   71  48  43 W9        30.15F
BURBANK        SUNNY     67  46  47 SE7       30.15F
ONTARIO        MOSUNNY   69  46  43 VRB3      30.15F
RIVERSIDE      SUNNY     69  49  48 CALM      30.15F
PALM SPRINGS   MOSUNNY   68  51  54 E5        30.19F
EL CENTRO NAS  PTSUNNY   65  54  67 SW5       30.18F
IMPERIAL       CLOUDY    65  54  67 W5        30.18F
BLYTHE         SUNNY     66  55  67 W6        30.18F
$$

NVZ020-UTZ003-272200-
SOUTHERN NEVADA-UTAH

CITY           SKY/WX    TMP DP  RH WIND       PRES   REMARKS
LAS VEGAS      NOT AVBL
SALT LAKE CITY PTSUNNY   56  34  43 S22       30.14F
$$

NMZ009-TXZ055-272200-
NEW MEXICO-WEST TEXAS

CITY           SKY/WX    TMP DP  RH WIND       PRES   REMARKS
ALBUQUERQUE    PTSUNNY   56  27  32 CALM      30.27F
EL PASO        MOSUNNY   65  39  38 SE5       30.23F
$$


........................KEY........................
SKY/WX - SKY CONDITION/WEATHER
TMP    - TEMPERATURE IN FAHRENHEIT
DP     - DEW POINT IN FAHRENHEIT
RH     - RELATIVE HUMIDITY IN PERCENT
WIND   - DIRECTION AND SPEED IN MILES PER HOUR (MPH)
VRB    - VARIABLE WIND DIRECTION
PRES   - MEAN SEA LEVEL PRESSURE IN INCHES OF MERCURY
         F - FALLING PRESSURE   R - RISING PRESSURE
         S - STEADY PRESSURE
VSB    - VISIBILITY IN MILES
HX     - HEAT INDEX IN FAHRENHEIT
WCI    - WIND CHILL INDEX IN FAHRENHEIT
TC     - TEMPERATURE IN CELSIUS WHICH IS ALSO KNOWN AS
         TEMPERATURE IN CENTIGRADE
AFB    - AIR FORCE BASE
         LUKE AFB IS LUKE AIR FORCE BASE
         DAVIS-MONTHAN IS DAVIS-MONTHAN AIR FORCE BASE
NAS    - NAVAL AIR STATION
         EL CENTRO NAS IS EL CENTRO NAVAL AIR STATION
N/A    - NOT AVAILABLE



USA.gov is the U.S. government's official web portal to all federal, state and local government web resources and services.